Flag for Canada Weather past 2 weeks in Saanich, British Columbia, Canada

Now
54 °F

Light rain. Broken clouds.


Feels Like: 50 °F
Forecast: 50 / 56 °F
Wind: 12 mph from Southeast

Location: Victoria Int. Airportb. C.

Current Time: Oct 23, 2014 at 1:09:49 PM

Latest Report: Oct 23, 2014 at 12:00 PM


Visibility: 15 mi

Pressure: 29.73 "Hg

Humidity: 88%

Dew point: 50 °F

Location of SaanichLocation

Historic Weather in Saanich — Graph

°F

Saanich temperature yesterday

Maximum temperature yesterday: 55 °F (at 12:00 AM)
Minimum temperature yesterday: 52 °F (at 7:00 AM)
Average temperature yesterday: 54 °F

Past Weeks' High & Low Weather Summary

 TemperatureHumidityPressure
High66 °F (Oct 9, 3:00 PM)100% (Oct 8, 9:00 PM)30.22 "Hg (Oct 8, 9:00 PM)
Low46 °F (Oct 12, 2:00 AM)56% (Oct 11, 3:00 PM)29.48 "Hg (Oct 22, 8:00 PM)
Average55 °F90%29.82 "Hg
* Reported Oct 8 12:00 Noon — Oct 23 12:00 Noon, Saanich, Weather by CustomWeather, © 2014

Note: Actual official high and low records may vary slightly from our data, if they occured in-between our weather recording intervals... More about our weather records

Advertising

Saanich weather history for previous 24 hours

 ConditionsComfort  
Time TempWeatherWind HumidityBarometerVisibility
12:00 PM
Oct 23
54 °FLight rain. Broken clouds.12 mph88%29.73 "Hg15 mi
11:00 AM52 °FPartly sunny.12 mph88%29.71 "Hg15 mi
10:00 AM50 °FLight rain. Partly sunny.5 mph94%29.70 "Hg15 mi
9:51 AM50 °FLight rain. Broken clouds.5 mph100%29.70 "Hg20 mi
9:00 AM48 °FRain. Fog.6 mph94%29.70 "Hg5 mi
8:00 AM50 °FLight rain. Fog.3 mph100%29.67 "Hg6 mi
7:00 AM52 °FLight rain. Overcast.3 mph88%29.66 "Hg10 mi
6:04 AM50 °FRain. Mostly cloudy.2 mph94%29.67 "Hg12 mi
5:00 AM52 °FLight rain. Overcast.3 mph88%29.66 "Hg30 mi
4:00 AM50 °FPartly cloudy.9 mph94%29.67 "Hg30 mi
3:00 AM48 °FPartly cloudy.3 mph87%29.67 "Hg30 mi
2:00 AM50 °FPassing clouds.7 mph82%29.66 "Hg30 mi
1:00 AM52 °FPartly cloudy.7 mph82%29.64 "Hg20 mi
12:00 AM54 °FLight rain. Mostly cloudy.24 mph72%29.59 "Hg20 mi
11:52 PM
Oct 22
54 °FLight rain. Passing clouds.17 mph77%29.60 "Hg30 mi
11:00 PM52 °FPassing clouds.7 mph82%29.57 "Hg30 mi
10:00 PM52 °FPartly cloudy.8 mph88%29.54 "Hg20 mi
9:00 PM52 °FSprinkles. Fog.6 mph94%29.51 "Hg5 mi
8:00 PM54 °FSprinkles. Fog.5 mph94%29.48 "Hg3 mi
7:00 PM54 °FLight rain. Fog.2 mph94%29.50 "Hg1 mi
6:00 PM54 °FLight rain. Fog.8 mph94%29.52 "Hg3 mi
5:00 PM55 °FLight rain. Fog.10 mph94%29.56 "Hg5 mi
4:00 PM54 °FLight rain. Mostly cloudy.3 mph94%29.59 "Hg12 mi
3:51 PM54 °FLight rain. Mostly cloudy.3 mph94%29.59 "Hg12 mi
3:00 PM55 °FBroken clouds.5 mph94%29.60 "Hg15 mi
2:00 PM54 °FPartly sunny.3 mph94%29.64 "Hg15 mi
1:00 PM54 °FPartly sunny.9 mph94%29.65 "Hg15 mi
Weather by CustomWeather, © 2014

See weather overviewHow to use our weather pages